Orbital Elements at Epoch 2456717.5 (2014-Mar-01.0) TDB
Reference: JPL 15 (heliocentric ecliptic J2000)
Element | Value | Uncertainty (1-sigma) | Units |
e | .5605977808221723 | 1.3101e-07 | |
a | 3.808319341400365 | 1.6104e-07 | au |
q | 1.673383969949164 | 5.3823e-07 | au |
i | 10.54421204182212 | 1.0484e-05 | deg |
node | 114.7417165616202 | 5.0075e-05 | deg |
peri | 157.8742443878394 | 9.645e-05 | deg |
M | 27.5372541598409 | 2.1425e-05 | deg |
tp | 2456509.857333809695 (2013-Aug-05.35733381) | 0.00015722 | TDB |
period | 2714.553869264272 7.43 | 0.00017218 4.714e-07 | d yr |
n | .1326184770455748 | 8.412e-09 | deg/d |
Q | 5.943254712851567 | 2.5132e-07 | au |
|
Additional Model Parameters
Parameter | Value | Uncertainty (1-sigma) |
A1 [EST] | 4.481930143048554E-9 | 1.18E-10 |
A2 [EST] | 4.240353860189232E-10 | 8.515E-13 |
|
| | Orbit Determination Parameters
Additional Information
|